Tracking 19832 objects as of 25-Aug-2019
HD Live streaming from Space Station
objects crossing your sky now

FLOCK 3P 69

Track FLOCK 3P 69 now!
10-day predictions
FLOCK 3P 69 is classified as:


NORAD ID: 42020
Int'l Code: 2017-008CA
Perigee: 491.6 km
Apogee: 500.0 km
Inclination: 97.4 °
Period: 94.4 minutes
Semi major axis: 6866 km
RCS: Unknown
Launch date: February 15, 2017
Source: United States (US)
Launch site: SRIHARIKOTA (SRI)
aabbcc
Your satellite tracking list
Your tracking list is empty




NASA's NSSDC Master Catalog

Two Line Element Set (TLE):
1 42020U 17008CA  19235.85923011 +.00001208 +00000-0 +50237-4 0  9995
2 42020 097.4051 302.5760 0006144 270.4560 089.5974 15.25704341138778
Source of the keplerian elements: AFSPC